Regional Weather Roundup
Issued by NWS

Home | Current Version | Previous Version | Text Only | Print | Product List | Glossary On
Versions: 1 2 3 4 5 6 7 8 9 10 11 12 13 14 15 16 17 18 19 20 21 22 23 24 25 26 27 28 29 30 31 32 33 34 35 36 37 38 39 40 41 42 43 44 45 46 47 48 49 50
000
ASUS44 KBMX 022010
RWRAL

ALABAMA REGIONAL WEATHER ROUNDUP
NATIONAL WEATHER SERVICE BIRMINGHAM AL
200 PM CST MON MAR 02 2015

NOTE: "FAIR" INDICATES FEW OR NO CLOUDS BELOW 12,000 FEET
WITH NO SIGNIFICANT WEATHER AND/OR OBSTRUCTIONS TO VISIBILITY.

THE REMARK "TC" DENOTES TEMPERATURE IN DEGREES CELSIUS.

ALZ001>011-014-016>018-020-022100-
NORTH ALABAMA

CITY           SKY/WX    TMP DP  RH WIND       PRES   REMARKS
MUSCLE SHOALS  LGT RAIN  46  37  71 NE3       30.34F
HUNTSVILLE     CLOUDY    49  40  71 NE8       30.32F
DECATUR        CLOUDY    46  39  76 N10       30.33F
HALEYVILLE       N/A     43  41  93 CALM      30.34F
GADSDEN        CLOUDY    52  45  76 NE7       30.28F
$$

ALZ012-013-022-023-030>036-040>044-022100-
WEST CENTRAL ALABAMA

CITY           SKY/WX    TMP DP  RH WIND       PRES   REMARKS
TUSCALOOSA     CLOUDY    53  49  86 N8        30.30F
$$

ALZ015-024>027-033>036-040>044-022100-
CENTRAL ALABAMA

CITY           SKY/WX    TMP DP  RH WIND       PRES   REMARKS
BIRMINGHAM     LGT RAIN  50  48  93 N9        30.31F FOG
MONTGOMERY     CLOUDY    61  55  82 CALM      30.26F
SHELBY CO ARPT CLOUDY    56  54  93 E6        30.28F FOG
MAXWELL AFB    CLOUDY    59  55  88 NW6       30.26F
GREENVILLE     CLOUDY    61  59  93 E3        30.24F FOG
$$

ALZ019-021-028-029-037-038-045>048-022100-
EAST CENTRAL ALABAMA

CITY           SKY/WX    TMP DP  RH WIND       PRES   REMARKS
ANNISTON       LGT RAIN  55  51  86 VRB3      30.29F
ALEXANDER CITY CLOUDY    62  54  76 CALM      30.27F
AUBURN         CLOUDY    63  54  72 S3        30.28F
$$

ALZ051>064-022100-
SOUTHWEST ALABAMA

CITY           SKY/WX    TMP DP  RH WIND       PRES   REMARKS
MOBILE         CLOUDY    67  66  97 S5        30.24F FOG
BROOKLEY FIELD CLOUDY    68  65  90 S8        30.24F FOG
EVERGREEN      CLOUDY    62  60  93 CALM      30.25F FOG
$$

ALZ049-050-065>069-022100-
SOUTHEAST ALABAMA

CITY           SKY/WX    TMP DP  RH WIND       PRES   REMARKS
DOTHAN         CLOUDY    64  60  87 SE3       30.28F
OZARK          CLOUDY    64  59  82 SE5       30.24F
TROY           CLOUDY    62  58  86 CALM      30.26F FOG
EUFAULA        NOT AVBL
$$


USA.gov is the U.S. government's official web portal to all federal, state and local government web resources and services.